Location: Ottawa
(45.4170°N, 75.7000°W)
Time: 22:18:40
(UTC-04:00)

ISS - Pass Details

Date: 23 May 2021
Orbit: 417 x 422 km, 51.6° (Epoch: 13 June)

Event Time Altitude Azimuth Distance (km) Brightness Sun altitude
Rises 00:46:57 0° 297° (WNW) 2,370 0.5 -23.9°
Reaches altitude 10° 00:49:03 10° 295° (WNW) 1,504 -0.6 -23.9°
Enters shadow 00:49:59 17° 292° (WNW) 1,137 -1.3 -23.9°
